Regional Weather Roundup
Issued by NWS

Home | Current Version | Previous Version | Text Only | Print | Product List | Glossary On
Versions: 1 2 3 4 5 6 7 8 9 10 11 12 13 14 15 16 17 18 19 20 21 22 23 24 25 26 27 28 29 30 31 32 33 34 35 36 37 38 39 40 41 42 43 44 45 46 47 48 49 50
000
ASUS43 KDTX 021701
RWRMI
MICHIGAN HOURLY REGIONAL WEATHER ROUNDUP
NATIONAL WEATHER SERVICE DETROIT/PONTIAC MI
100 PM EDT WED SEP 02 2015

NOTE: "FAIR" INDICATES FEW OR NO CLOUDS BELOW 12,000 FEET WITH NO
SIGNIFICANT WEATHER AND/OR OBSTRUCTION TO VISIBILITY.

MIZ047>049-052>055-059>063-066>070-074>076-081>083-021800-
SOUTHEAST LOWER MICHIGAN

CITY           SKY/WX    TMP DP  RH WIND       PRES   REMARKS
ADRIAN         SUNNY     84  71  65 S7        30.06F
ALMA           MOSUNNY   83  76  77 SW6       30.01F HX  92
ANN ARBOR      SUNNY     82  73  74 SW8       30.04F
BAD AXE        CLOUDY    83  73  72 W8        30.00F
DETROIT CITY   SUNNY     85  71  63 S13       30.02F HX  90
DETROIT        PTSUNNY   83  71  67 S10       30.04F
FLINT          MOSUNNY   87  72  60 S8        30.02F HX  93
GROSSE ILE     MOSUNNY   81  73  78 S10       30.03F
HILLSDALE      SUNNY     87  71  59 W8        30.07F HX  92
HOWELL         SUNNY     84  71  65 SW8       30.03F HX  90

CITY           SKY/WX    TMP DP  RH WIND       PRES   REMARKS
JACKSON        SUNNY     85  73  67 W9        30.04F HX  91
LAMBERTVILLE   MOSUNNY   78  73  85 SW3       30.06F
LANSING        SUNNY     84  73  69 SW9       30.03F HX  90
LAPEER         PTSUNNY   87  71  60 W7        30.02F HX  92
MASON          MOSUNNY   83  71  65 SW6       30.04F
MONROE         MOSUNNY   82  71  67 SW9       30.04F
MT. CLEMENS    MOSUNNY   85  73  67 S13       30.00F HX  91
PONTIAC        MOSUNNY   85  70  60 SW10      30.02F
PORT HOPE        N/A     75  72  90 CALM      29.98F
PORT HURON     PTSUNNY   86  72  62 S12       30.01F HX  92
TRI CITIES     MOSUNNY   85  74  69 SW7       30.01S HX  92
MIDLAND        PTSUNNY   84  72  67 W6        29.99S HX  90
TROY           SUNNY     87  70  56 SW5       30.04F HX  91
SAGINAW HB     PTSUNNY   84  73  70 SW5       30.00S HX  91
$$
MIZ043>046-050>051-056>058-064>065-071>073-077>080-021800-
SOUTHWEST LOWER MICHIGAN

CITY           SKY/WX    TMP DP  RH WIND       PRES   REMARKS
BATTLE CREEK   SUNNY     87  71  58 W13       30.05F HX  93
BENTON HARBOR  SUNNY     82  70  66 W9        30.04F
BIG RAPIDS     CLOUDY    83  74  73 SW7       30.01S HX  90
COLDWATER      SUNNY     87  69  55 W9        30.06F HX  91
FREMONT        FAIR      84  75  74 W9        30.00F HX  91
HOLLAND        SUNNY     83  71  67 SW12      30.03F
GRAND RAPIDS   MOSUNNY   85  73  67 W9        30.02F HX  91
IONIA          FAIR      86  73  66 W7        30.01F HX  92
KALAMAZOO      SUNNY     87  70  56 NW12      30.04F HX  92
LUDINGTON      SUNNY     78  72  80 SW5       30.01F
MARSHALL       MOSUNNY   86  72  62 W6        30.04F HX  93
MOUNT PLEASANT PTSUNNY   88  74  63 SW6       29.99F HX  96
MUSKEGON       MOSUNNY   81  69  67 SW10      30.02F
SOUTH HAVEN    SUNNY     82  69  65 W9        30.04F
$$
MIZ016>042-021800-
NORTHERN LOWER MICHIGAN

CITY           SKY/WX    TMP DP  RH WIND       PRES   REMARKS
ALPENA         SUNNY     87  72  60 CALM      29.97F HX  93
BEAVER ISLAND  MOSUNNY   79  69  70 W7        30.00
BELLAIRE       SUNNY     86  72  62 W3        29.97S HX  92
CADILLAC       MOSUNNY   84  75  73 SW5       30.01F HX  91
CHARLEVOIX     MOSUNNY   79  72  79 NW9       30.01S
FRANKFORT      PTSUNNY   77  72  84 W6        30.00R HAZE
GAYLORD        MOSUNNY   84  71  65 W8        30.00F
GRAYLING       MOSUNNY   85  73  65 S5        30.00F HX  92
HARBOR SPRINGS MOSUNNY   78  71  80 SW6       29.98S
HOUGHTON LAKE  SUNNY     83  73  72 W6        30.00F
MANISTEE       SUNNY     81  72  74 W7        30.00S
OSCODA         PTSUNNY   87  70  57 S5        29.96F HX  92
PELLSTON       CLOUDY    84  72  67 NW6       29.98S
ROGERS CITY    PTSUNNY   75  70  85 N5        29.99S HAZE
TRAVERSE CITY  PTSUNNY   89  72  56 SW7       29.96S HX  96
$$
MIZ007>008-015-021800-
EASTERN UPPER MICHIGAN

CITY           SKY/WX    TMP DP  RH WIND       PRES   REMARKS
KINROSS        CLOUDY    73  72  94 N3        29.99S
MACKINAC ISLAN FAIR      77  70  80 NE3       29.98F
NEWBERRY       CLOUDY    74  71  90 CALM      30.00R
S. S. MARIE    PTSUNNY   78  70  76 VRB5      29.97F HAZE
$$
MIZ004>006-011>014-085-021800-
CENTRAL UPPER MICHIGAN

CITY           SKY/WX    TMP DP  RH WIND       PRES   REMARKS
MANISTIQUE     CLOUDY    72  67  86 SE3       29.99S
ESCANABA       CLOUDY    70  66  88 SW8       30.00R THUNDER
MENOMINEE      PTSUNNY   81  70  69 E8        29.96R
SAWYER-GWINN   TSTM      70  68  94 N10       30.06R
$$
MIZ001>003-009>011-084-021800-
WESTERN UPPER MICHIGAN

CITY           SKY/WX    TMP DP  RH WIND       PRES   REMARKS
IRON MOUNTAIN  CLOUDY    72  67  84 N8        29.99R
HOUGHTON       LGT RAIN  67  66  97 W3        30.04S FOG
COPPER HARBOR    N/A     71  64  78 W7        30.03
IRONWOOD       CLOUDY    66  66 100 CALM      30.01F
$$

ABBREVIATIONS USED IN REMARKS
   TC - TEMPERATURE IN CELSIUS
  WCI - WIND CHILL INDEX
   HX - HEAT INDEX
  VSB - VISIBILITY



USA.gov is the U.S. government's official web portal to all federal, state and local government web resources and services.